TimeCDT,TemperatureF,Dew PointF,Humidity,Sea Level PressureIn,VisibilityMPH,Wind Direction,Wind SpeedMPH,Gust SpeedMPH,PrecipitationIn,Events,Conditions,WindDirDegrees,DateUTC
12:54 AM,57.9,45.0,62,29.80,10.0,SE,13.8,-,N/A,,Clear,140,2013-05-08 05:54:00
1:54 AM,57.9,45.0,62,29.79,10.0,SSE,10.4,-,N/A,,Partly Cloudy,150,2013-05-08 06:54:00
2:54 AM,59.0,46.0,62,29.78,10.0,SW,5.8,-,N/A,,Overcast,220,2013-05-08 07:54:00
3:54 AM,57.0,44.1,62,29.76,10.0,SSW,5.8,-,N/A,,Clear,200,2013-05-08 08:54:00
4:54 AM,60.1,43.0,53,29.78,8.0,Calm,Calm,-,N/A,,Scattered Clouds,0,2013-05-08 09:54:00
5:54 AM,53.1,43.0,69,29.79,10.0,Calm,Calm,-,N/A,,Clear,0,2013-05-08 10:54:00
6:54 AM,48.9,43.0,80,29.81,10.0,North,6.9,-,N/A,,Clear,10,2013-05-08 11:54:00
7:54 AM,54.0,46.9,77,29.81,10.0,North,6.9,-,N/A,,Clear,10,2013-05-08 12:54:00
8:54 AM,61.0,48.9,64,29.84,10.0,NE,10.4,-,N/A,,Clear,40,2013-05-08 13:54:00
9:54 AM,66.0,46.9,50,29.84,10.0,East,8.1,-,N/A,,Clear,100,2013-05-08 14:54:00
10:54 AM,68.0,46.9,47,29.84,10.0,ESE,9.2,-,N/A,,Clear,110,2013-05-08 15:54:00
11:54 AM,71.1,46.9,42,29.84,10.0,Variable,6.9,-,N/A,,Clear,0,2013-05-08 16:54:00
12:54 PM,73.0,46.9,39,29.83,10.0,Variable,4.6,-,N/A,,Clear,0,2013-05-08 17:54:00
1:54 PM,75.9,48.0,37,29.81,10.0,East,11.5,-,N/A,,Scattered Clouds,90,2013-05-08 18:54:00
2:54 PM,75.9,46.9,36,29.79,10.0,East,10.4,17.3,N/A,,Mostly Cloudy,100,2013-05-08 19:54:00
3:54 PM,80.1,46.9,31,29.75,10.0,East,13.8,20.7,N/A,,Scattered Clouds,90,2013-05-08 20:54:00
4:54 PM,80.1,45.0,29,29.72,10.0,East,12.7,20.7,N/A,,Clear,80,2013-05-08 21:54:00
5:54 PM,78.1,46.0,32,29.71,10.0,East,15.0,-,N/A,,Clear,90,2013-05-08 22:54:00
6:47 PM,66.2,46.4,49,29.86,1.0,West,42.6,55.2,N/A,,Haze,280,2013-05-08 23:47:00
6:51 PM,57.2,48.2,72,29.83,2.5,WNW,51.8,64.4,0.01,,Haze,290,2013-05-08 23:51:00
6:54 PM,53.1,48.0,83,29.83,1.5,WNW,50.6,64.4,0.06,Hail-Thunderstorm,Thunderstorms with Hail,290,2013-05-08 23:54:00
6:57 PM,48.2,46.4,93,29.88,1.0,WNW,43.7,64.4,0.07,Rain,Heavy Rain,300,2013-05-08 23:57:00
7:25 PM,50.0,48.2,94,29.86,3.0,NW,42.6,65.6,0.39,Rain,Rain,320,2013-05-09 00:25:00
7:54 PM,53.1,48.9,86,29.86,10.0,NNW,31.1,43.7,0.41,Rain,Light Rain,330,2013-05-09 00:54:00
8:54 PM,54.0,48.9,83,29.79,10.0,NNE,35.7,48.3,0.01,Rain,Light Rain,20,2013-05-09 01:54:00
9:54 PM,53.1,48.9,86,29.81,10.0,North,19.6,-,0.00,,Clear,10,2013-05-09 02:54:00
10:54 PM,53.1,48.0,83,29.85,10.0,NNE,3.5,-,N/A,,Clear,30,2013-05-09 03:54:00
11:54 PM,50.0,48.0,93,29.88,10.0,SSW,3.5,-,N/A,,Clear,200,2013-05-09 04:54:00